Location: Ferchesar
(52.6477°N, 12.4298°E)
Time: 08:47:37
(UTC+01:00)

Tiros 1 despin weight - Pass Details

Date: 09 December 2021
Orbit: 592 x 641 km, 48.2° (Epoch: 19 January)

Event Time Altitude Azimuth Distance (km) Brightness Sun altitude
Rises 16:02:10 0° 274° (W) 2,832 ? -1.6°
Reaches altitude 10° 16:04:42 10° 263° (W) 1,925 ? -1.9°
Maximum altitude 16:08:26 28° 204° (SSW) 1,131 ? -2.4°
Drops below altitude 10° 16:12:10 10° 146° (SE) 1,918 ? -2.8°
Sets 16:14:41 0° 135° (SE) 2,820 ? -3.2°
